This is the latest recevied weather packets stored in our database for station/object VA7IM-13. If no packets are shown the sender has not sent any weather packets the latest 1 day(s).
| Time | Temp. | Humidity | Pressure | Rain* | Wind** | Luminosity | Snow |
|---|---|---|---|---|---|---|---|
| 1778008918 | 18.33° C | - | - | 0 mm | 3.58 m/s, 158° | - | - |
| 1778008618 | 18.33° C | - | - | 0 mm | 2.24 m/s, 203° | - | - |
| 1778008318 | 18.89° C | - | - | 0 mm | 3.13 m/s, 203° | - | - |
| 1778008017 | 17.78° C | - | - | 0 mm | 3.58 m/s, 113° | - | - |
| 1778007718 | - | - | - | 0 mm | 3.13 m/s, 158° | - | - |
| 1778007419 | 17.78° C | - | - | 0 mm | 2.68 m/s, 180° | - | - |
| 1778007118 | 17.78° C | - | - | 0 mm | 3.58 m/s, 135° | - | - |
| 1778006817 | 17.22° C | - | - | 0 mm | 3.58 m/s, 135° | - | - |
| 1778006518 | - | - | - | 0 mm | 2.68 m/s, 180° | - | - |
| 1778006219 | 17.22° C | - | - | 0 mm | 3.13 m/s, 158° | - | - |
| 1778005918 | 17.22° C | - | - | 0 mm | 1.34 m/s, 135° | - | - |
| 1778005618 | 16.11° C | - | - | 0 mm | 2.24 m/s, 113° | - | - |
| 1778005019 | 16.11° C | - | - | 0 mm | 3.13 m/s, 113° | - | - |
| 1778004718 | 16.11° C | - | - | 0 mm | 3.58 m/s, 203° | - | - |
| 1778004418 | 15° C | - | - | 0 mm | 2.24 m/s, 203° | - | - |
| 1778004119 | 15° C | - | - | 0 mm | 1.79 m/s, 113° | - | - |
| 1778003818 | 15° C | - | - | 0 mm | 2.24 m/s, 180° | - | - |
| 1778003519 | 15° C | - | - | 0 mm | 1.79 m/s, 113° | - | - |
| 1778003219 | 14.44° C | - | - | 0 mm | 2.68 m/s, 135° | - | - |
| 1778002919 | 13.89° C | - | - | 0 mm | 2.68 m/s, 158° | - | - |
| 1778002618 | 13.89° C | - | - | 0 mm | 3.13 m/s, 180° | - | - |
| 1778002318 | 14.44° C | - | - | 0 mm | 2.68 m/s, 180° | - | - |
| 1778002018 | 13.89° C | - | - | 0 mm | 3.13 m/s, 45° | - | - |
| 1778001718 | 13.89° C | - | - | 0 mm | 2.68 m/s, 158° | - | - |
| 1778001419 | 14.44° C | - | - | 0 mm | 2.24 m/s, 180° | - | - |
* Rain since midnight (hover to see other rain measurements)
** Current wind speed in m/s (hover to see current wind gust speed)